MESHBED (44806 NORAD) Tracking and Keplerian Element Data

This shows tracking and keplerian element data for the satellite.

Feedback or suggestion? Click here.




ElementValue
Catalog44806
NameMESHBED
Epoch Orbit1938
Epoch Day93.91608125
Epoch Year2020
RAAN155.2874
Inclination97.5028
Eccentricity0.0015259
Argument of Perigee154.5345
Mean Anonmoly205.6645
Mean Motion15.19421022
Decay Rate1.999E-05
L11 44806U 19081C 20093.91608125 .00001999 00000-0 97417-4 0 9997
L22 44806 97.5028 155.2874 0015259 154.5345 205.6645 15.19421022 19382

Live tracking and technical data element details for MESHBED (NORAD 44806). MESHBED can be tracked NOW for your location showing map with azimuth and elevation plus other details from your city location.

Track the satellite on the map from your city or location and see movement details for azimuth, elevation, latitude, longitude, range, height, and movement on the map or in text.







IsCatalogInMostPopularTable: catalog: 44806, numindb: 35
Update: records affected: 1



GetName: 44806 MESHBED

Hit Count: updated at: Fri, 03 Apr 2020 22:50:31 GMT